To NAV CANADA Home Page Login to a new session Search on AWWS site Disclaimer Vers la page française équivalente Tips FAQ What's new on the site To the Forecasts and Observations / NOTAM section To "File a Flight Plan" website Publications and other links Update of the User's profile FIC Telephone Numbers My Weather Data Folder Route Weather Data Regional Weather Data Local Weather Data To the Forecasts and Observations / NOTAM section
Request Generated 04/24/2019 at 16:04:29 UTC . Weather information available at that time is displayed.

METAR/TAF

AKULIVIK/QC    

METAR CYKO 241500Z 14024KT 4SM -SN DRSN BKN009 M09/M10 A3002 RMK SC7 SLP171=
METAR CYKO 241400Z 14022KT 5SM -SN DRSA OVC005 M09/M11 A3005 RMK SC8 SLP180=
METAR CYKO 241300Z 16018KT 1 1/2SM -SN BLSN BKN006 M09/M11 A3008 RMK BLSN1SC6 SLP190=

CYKO - No TAF is issued for this station

Your time UTC time
Weather data provided by Environment Canada and NAV CANADA